{"data":{"norad_id":58890,"intl_designator":"2024-020Q","name":"STARLINK-31230","alt_names":[],"object_type":"PAYLOAD","status":"ACTIVE","operator":null,"country":"US","launch_date":"2024-01-29","launch_site_code":"AFWTR","launch_vehicle":null,"mission":null,"orbit_class":"UNKNOWN","rcs_meters":null,"size_class":null,"mass_kg":null,"dimensions":null,"purposes":["comms"],"wikipedia_slug":null,"has_3d_model":false,"image_url":null,"decayed_at":null,"tle_current":{"epoch":"2026-05-25T04:53:25.595808Z","epoch_age_seconds":57406,"freshness":"FRESH","line1":"1 58890U 24020Q   26145.20376847  .00000899  00000+0  37739-4 0  9991","line2":"2 58890  53.1615 324.3600 0001024  90.5447 269.5672 15.34389966129820","mean_motion":15.34389966,"eccentricity":0.0001024,"inclination_deg":53.1615,"raan_deg":324.36,"arg_perigee_deg":90.5447,"mean_anomaly_deg":269.5672,"bstar":3.7739e-5,"rev_number":12982,"period_min":93.848371789991,"perigee_km":462.03255843769,"apogee_km":463.4335686267,"semimajor_km":6840.8700635322,"source":"CELESTRAK","updated_at":"2026-05-25T13:38:18.786504Z"}}}